User: anonymous   Login
Location: Wawayanda State Park
(41.1833°N, 74.4333°W)
Time: 20:02:46
(UTC-04:00)
Language:

Landsat 7 - Orbit

View from above orbital plane
View from above orbital plane
View from above satellite
View from above satellite

Ground track
Ground track

The orbit data is extracted from the following two-line orbital elements,

1 25682U 99020A   17082.76932008 -.00000130 +00000-0 -18884-4 0  9995
2 25682 098.2175 155.0858 0000790 079.6771 280.4514 14.57106344954155
Epoch (UTC): 23 March 2017 18:27:49
Eccentricity: 0.0000790
inclination: 98.2175°
perigee height: 702 km
apogee height: 703 km
right ascension of ascending node: 155.0858°
argument of perigee: 79.6771°
revolutions per day: 14.57106344
mean anomaly at epoch: 280.4514°
orbit number at epoch: 95415

The dashed part of the orbit path shows where the satellite is in the earth's shadow,  

DLR